| time (UTC) | temp C | wind direction | speed KPH | gust KPH | rain 1hr cm | rain 24hr cm | rain mn cm | humidity % | barometer mb |
| 20260505125001 | 15 | 204 | 3.2 | 3.2 | 0.00 | 0.00 | 0.00 | 70 | 1017.7 |
| 20260505124458 | 15 | 222 | 3.2 | 4.8 | 0.00 | 0.00 | 0.00 | 71 | 1017.4 |
| 20260505123953 | 15 | 250 | 1.6 | 4.8 | 0.00 | 0.00 | 0.00 | 67 | 1017.3 |
| 20260505123450 | 14 | 245 | 1.6 | 3.2 | 0.00 | 0.00 | 0.00 | 70 | 1017.5 |
| 20260505122946 | 14 | 226 | 3.2 | 3.2 | 0.00 | 0.00 | 0.00 | 71 | 1017.3 |
| 20260505122444 | 15 | 343 | 0.0 | 4.8 | 0.00 | 0.00 | 0.00 | 70 | 1017.1 |
| 20260505121940 | 15 | 102 | 3.2 | 4.8 | 0.00 | 0.00 | 0.00 | 70 | 1017.3 |
| 20260505121437 | 13 | 116 | 6.4 | 6.4 | 0.00 | 0.00 | 0.00 | 71 | 1017.2 |
| 20260505120933 | 13 | 116 | 6.4 | 8.0 | 0.00 | 0.00 | 0.00 | 72 | 1017.1 |
| 20260505120430 | 12 | 113 | 6.4 | 8.0 | 0.00 | 0.00 | 0.00 | 76 | 1017.0 |
| 20260505115929 | 11 | 111 | 6.4 | 8.0 | 0.00 | 0.00 | 0.00 | 81 | 1017.1 |
| 20260505115426 | 11 | 104 | 8.0 | 8.0 | 0.00 | 0.00 | 0.00 | 81 | 1017.2 |
| 20260505114924 | 10 | 109 | 6.4 | 9.7 | 0.00 | 0.00 | 0.00 | 82 | 1017.3 |
| 20260505114420 | 10 | 106 | 6.4 | 8.0 | 0.00 | 0.00 | 0.00 | 84 | 1017.1 |
| 20260505113916 | 9 | 108 | 4.8 | 8.0 | 0.00 | 0.00 | 0.00 | 85 | 1017.1 |
| 20260505113413 | 8 | 116 | 6.4 | 8.0 | 0.00 | 0.00 | 0.00 | 86 | 1017.1 |
| 20260505112908 | 8 | 122 | 6.4 | 8.0 | 0.00 | 0.00 | 0.00 | 86 | 1017.0 |
| 20260505112407 | 8 | 123 | 4.8 | 4.8 | 0.00 | 0.00 | 0.00 | 87 | 1017.3 |
| 20260505111902 | 8 | 85 | 3.2 | 3.2 | 0.00 | 0.00 | 0.00 | 88 | 1017.0 |
| 20260505111357 | 8 | 104 | 4.8 | 8.0 | 0.00 | 0.00 | 0.00 | 88 | 1017.0 |
| 20260505110853 | 8 | 124 | 8.0 | 9.7 | 0.00 | 0.00 | 0.00 | 86 | 1017.1 |
| 20260505110351 | 8 | 98 | 6.4 | 8.0 | 0.00 | 0.00 | 0.00 | 85 | 1017.1 |
| 20260505101821 | 7 | 61 | 3.2 | 3.2 | 0.00 | 0.00 | 0.00 | 88 | 1016.8 |
| 20260505101316 | 8 | 103 | 3.2 | 6.4 | 0.00 | 0.00 | 0.00 | 87 | 1016.7 |
| 20260505100812 | 8 | 110 | 4.8 | 8.0 | 0.00 | 0.00 | 0.00 | 86 | 1016.6 |
| 20260505100309 | 8 | 116 | 4.8 | 6.4 | 0.00 | 0.00 | 0.00 | 86 | 1016.5 |
| 20260505095805 | 8 | 35 | 3.2 | 4.8 | 0.00 | 0.00 | 0.00 | 85 | 1016.5 |
| 20260505095304 | 8 | 106 | 6.4 | 8.0 | 0.00 | 0.00 | 0.00 | 86 | 1016.6 |
| 20260505094758 | 8 | 125 | 6.4 | 8.0 | 0.00 | 0.00 | 0.00 | 84 | 1016.5 |
| 20260505094255 | 10 | 119 | 4.8 | 8.0 | 0.00 | 0.00 | 0.00 | 81 | 1016.4 |
| 20260505093751 | 10 | 111 | 6.4 | 8.0 | 0.00 | 0.00 | 0.00 | 78 | 1016.5 |
| 20260505093249 | 10 | 97 | 4.8 | 8.0 | 0.00 | 0.00 | 0.00 | 75 | 1016.5 |
| 20260505092745 | 10 | 103 | 4.8 | 6.4 | 0.00 | 0.00 | 0.00 | 75 | 1016.5 |
| 20260505092244 | 10 | 73 | 6.4 | 9.7 | 0.00 | 0.00 | 0.00 | 79 | 1016.4 |
| 20260505091741 | 9 | 126 | 9.7 | 11.3 | 0.00 | 0.00 | 0.00 | 81 | 1016.5 |
| 20260505091239 | 10 | 119 | 9.7 | 9.7 | 0.00 | 0.00 | 0.00 | 80 | 1016.4 |
| 20260505090736 | 11 | 119 | 6.4 | 8.0 | 0.00 | 0.00 | 0.00 | 73 | 1016.1 |
| 20260505090234 | 10 | 107 | 8.0 | 9.7 | 0.00 | 0.00 | 0.00 | 75 | 1016.4 |
| 20260505085731 | 11 | 105 | 8.0 | 8.0 | 0.00 | 0.00 | 0.00 | 71 | 1016.4 |
| 20260505085230 | 11 | 105 | 6.4 | 8.0 | 0.00 | 0.00 | 0.00 | 72 | 1016.2 |
| 20260505084727 | 11 | 103 | 8.0 | 9.7 | 0.00 | 0.00 | 0.00 | 73 | 1016.1 |
| 20260505084226 | 11 | 111 | 6.4 | 9.7 | 0.00 | 0.00 | 0.00 | 72 | 1016.1 |
| 20260505083722 | 11 | 84 | 4.8 | 9.7 | 0.00 | 0.00 | 0.00 | 71 | 1016.1 |
| 20260505083219 | 11 | 107 | 8.0 | 11.3 | 0.00 | 0.00 | 0.00 | 72 | 1016.4 |
| 20260505082715 | 11 | 100 | 4.8 | 8.0 | 0.00 | 0.00 | 0.00 | 73 | 1016.0 |
| 20260505082213 | 11 | 114 | 8.0 | 8.0 | 0.00 | 0.00 | 0.00 | 69 | 1016.0 |
| 20260505081708 | 11 | 111 | 8.0 | 8.0 | 0.00 | 0.00 | 0.00 | 69 | 1015.8 |
| 20260505081206 | 10 | 106 | 8.0 | 8.0 | 0.00 | 0.00 | 0.00 | 78 | 1016.0 |
| 20260505080703 | 10 | 111 | 9.7 | 11.3 | 0.00 | 0.00 | 0.00 | 76 | 1016.0 |
| 20260505080158 | 10 | 110 | 9.7 | 9.7 | 0.00 | 0.00 | 0.00 | 76 | 1015.8 |
| 20260505075654 | 11 | 104 | 8.0 | 9.7 | 0.00 | 0.00 | 0.00 | 71 | 1015.8 |
| 20260505075151 | 11 | 109 | 8.0 | 9.7 | 0.00 | 0.00 | 0.00 | 72 | 1015.7 |
| 20260505074648 | 11 | 107 | 8.0 | 11.3 | 0.00 | 0.00 | 0.00 | 73 | 1015.4 |
| 20260505074145 | 10 | 119 | 9.7 | 11.3 | 0.00 | 0.00 | 0.00 | 76 | 1015.5 |
| 20260505073643 | 11 | 103 | 8.0 | 11.3 | 0.00 | 0.00 | 0.00 | 75 | 1015.5 |
| 20260505073141 | 11 | 108 | 9.7 | 11.3 | 0.00 | 0.00 | 0.00 | 72 | 1015.3 |
| 20260505072636 | 11 | 111 | 8.0 | 11.3 | 0.00 | 0.00 | 0.00 | 70 | 1015.3 |
| 20260505072133 | 12 | 113 | 8.0 | 9.7 | 0.00 | 0.00 | 0.00 | 65 | 1015.7 |
| 20260505071628 | 12 | 112 | 8.0 | 9.7 | 0.00 | 0.00 | 0.00 | 65 | 1015.4 |
| 20260505071126 | 12 | 103 | 8.0 | 9.7 | 0.00 | 0.00 | 0.00 | 69 | 1015.6 |
| 20260505070624 | 12 | 104 | 8.0 | 9.7 | 0.00 | 0.00 | 0.00 | 71 | 1015.7 |
| 20260505070120 | 11 | 98 | 8.0 | 9.7 | 0.00 | 0.00 | 0.00 | 68 | 1015.6 |
| 20260505065616 | 12 | 111 | 9.7 | 11.3 | 0.00 | 0.00 | 0.00 | 70 | 1015.7 |
| 20260505065112 | 12 | 105 | 8.0 | 9.7 | 0.00 | 0.00 | 0.00 | 66 | 1015.5 |
| 20260505064609 | 11 | 105 | 8.0 | 11.3 | 0.00 | 0.00 | 0.00 | 74 | 1015.6 |
| 20260505064108 | 11 | 109 | 8.0 | 11.3 | 0.00 | 0.00 | 0.00 | 73 | 1015.4 |
| 20260505063605 | 12 | 107 | 9.7 | 9.7 | 0.00 | 0.00 | 0.00 | 68 | 1015.7 |
| 20260505063100 | 11 | 115 | 8.0 | 11.3 | 0.00 | 0.00 | 0.00 | 72 | 1015.5 |
| 20260505062557 | 12 | 107 | 8.0 | 8.0 | 0.00 | 0.00 | 0.00 | 69 | 1015.6 |
| 20260505062055 | 12 | 118 | 8.0 | 8.0 | 0.00 | 0.00 | 0.00 | 65 | 1015.5 |
| 20260505061552 | 12 | 110 | 8.0 | 8.0 | 0.00 | 0.00 | 0.00 | 68 | 1015.5 |
| 20260505061050 | 12 | 112 | 6.4 | 8.0 | 0.00 | 0.00 | 0.00 | 63 | 1015.7 |
| 20260505060547 | 12 | 115 | 6.4 | 9.7 | 0.00 | 0.00 | 0.00 | 66 | 1015.5 |
| 20260505060044 | 13 | 111 | 6.4 | 8.0 | 0.00 | 0.00 | 0.00 | 61 | 1015.5 |
| 20260505055539 | 14 | 106 | 3.2 | 4.8 | 0.00 | 0.00 | 0.00 | 56 | 1015.5 |
| 20260505055036 | 13 | 128 | 4.8 | 6.4 | 0.00 | 0.00 | 0.00 | 57 | 1015.4 |
| 20260505054533 | 13 | 99 | 6.4 | 8.0 | 0.00 | 0.00 | 0.00 | 59 | 1015.6 |
| 20260505054031 | 13 | 101 | 6.4 | 8.0 | 0.00 | 0.00 | 0.00 | 60 | 1015.7 |
| 20260505053528 | 13 | 107 | 4.8 | 6.4 | 0.00 | 0.00 | 0.00 | 59 | 1015.5 |
| 20260505053025 | 13 | 104 | 6.4 | 6.4 | 0.00 | 0.00 | 0.00 | 62 | 1015.7 |
| 20260505052522 | 13 | 107 | 8.0 | 8.0 | 0.00 | 0.00 | 0.00 | 69 | 1015.9 |
| 20260505052020 | 13 | 104 | 4.8 | 8.0 | 0.00 | 0.00 | 0.00 | 66 | 1015.7 |
| 20260505051516 | 14 | 107 | 4.8 | 8.0 | 0.00 | 0.00 | 0.00 | 59 | 1015.8 |
| 20260505051014 | 14 | 118 | 4.8 | 6.4 | 0.00 | 0.00 | 0.00 | 58 | 1015.7 |
| 20260505050512 | 14 | 102 | 4.8 | 4.8 | 0.00 | 0.00 | 0.00 | 55 | 1015.5 |
| 20260505041440 | 15 | 102 | 4.8 | 6.4 | 0.00 | 0.00 | 0.00 | 55 | 1015.5 |
| 20260505040937 | 15 | 110 | 6.4 | 8.0 | 0.00 | 0.00 | 0.00 | 55 | 1015.5 |
| 20260505040434 | 15 | 119 | 6.4 | 8.0 | 0.00 | 0.00 | 0.00 | 55 | 1015.4 |
| 20260505035931 | 14 | 116 | 4.8 | 8.0 | 0.00 | 0.00 | 0.00 | 59 | 1015.6 |
| 20260505035427 | 15 | 102 | 6.4 | 8.0 | 0.00 | 0.00 | 0.00 | 56 | 1015.5 |
| 20260505034925 | 15 | 120 | 4.8 | 8.0 | 0.00 | 0.00 | 0.00 | 53 | 1015.4 |
| 20260505034421 | 15 | 107 | 6.4 | 6.4 | 0.00 | 0.00 | 0.00 | 53 | 1015.6 |
| 20260505033918 | 15 | 127 | 3.2 | 4.8 | 0.00 | 0.00 | 0.00 | 54 | 1015.7 |
| 20260505033414 | 15 | 109 | 4.8 | 6.4 | 0.00 | 0.00 | 0.00 | 56 | 1015.6 |
| 20260505032913 | 15 | 107 | 4.8 | 8.0 | 0.00 | 0.00 | 0.00 | 53 | 1015.6 |
| 20260505032409 | 16 | 111 | 4.8 | 8.0 | 0.00 | 0.00 | 0.00 | 52 | 1015.7 |
| 20260505031906 | 16 | 95 | 4.8 | 6.4 | 0.00 | 0.00 | 0.00 | 52 | 1015.6 |
| 20260505031403 | 16 | 115 | 6.4 | 6.4 | 0.00 | 0.00 | 0.00 | 51 | 1015.7 |
| 20260505030900 | 15 | 113 | 3.2 | 4.8 | 0.00 | 0.00 | 0.00 | 52 | 1016.0 |
| 20260505030356 | 15 | 104 | 3.2 | 3.2 | 0.00 | 0.00 | 0.00 | 52 | 1016.0 |
| 20260505025851 | 16 | 141 | 3.2 | 6.4 | 0.00 | 0.00 | 0.00 | 51 | 1015.7 |
| 20260505025349 | 16 | 100 | 4.8 | 6.4 | 0.00 | 0.00 | 0.00 | 51 | 1015.8 |
| 20260505024848 | 16 | 126 | 4.8 | 6.4 | 0.00 | 0.00 | 0.00 | 51 | 1015.9 |
| 20260505024345 | 16 | 92 | 3.2 | 4.8 | 0.00 | 0.00 | 0.00 | 52 | 1015.7 |
| 20260505023842 | 16 | 116 | 4.8 | 6.4 | 0.00 | 0.00 | 0.00 | 51 | 1015.8 |
| 20260505023339 | 16 | 101 | 6.4 | 8.0 | 0.00 | 0.00 | 0.00 | 55 | 1015.6 |
| 20260505022836 | 16 | 98 | 6.4 | 9.7 | 0.00 | 0.00 | 0.00 | 56 | 1015.8 |
| 20260505022333 | 16 | 109 | 8.0 | 9.7 | 0.00 | 0.00 | 0.00 | 56 | 1015.7 |
| 20260505021831 | 16 | 123 | 4.8 | 8.0 | 0.00 | 0.00 | 0.00 | 55 | 1015.6 |
| 20260505021327 | 16 | 123 | 8.0 | 9.7 | 0.00 | 0.00 | 0.00 | 56 | 1015.5 |
| 20260505020822 | 16 | 95 | 6.4 | 8.0 | 0.00 | 0.00 | 0.00 | 54 | 1015.7 |
| 20260505020318 | 16 | 110 | 4.8 | 9.7 | 0.00 | 0.00 | 0.00 | 55 | 1015.7 |
| 20260505015815 | 16 | 127 | 8.0 | 9.7 | 0.00 | 0.00 | 0.00 | 58 | 1015.6 |
| 20260505015313 | 17 | 109 | 8.0 | 9.7 | 0.00 | 0.00 | 0.00 | 54 | 1015.5 |
| 20260505014810 | 17 | 129 | 6.4 | 8.0 | 0.00 | 0.00 | 0.00 | 54 | 1015.7 |
| 20260505014307 | 17 | 120 | 6.4 | 8.0 | 0.00 | 0.00 | 0.00 | 51 | 1015.5 |
| 20260505013803 | 17 | 106 | 6.4 | 12.9 | 0.00 | 0.00 | 0.00 | 52 | 1015.4 |
| 20260505013301 | 17 | 120 | 9.7 | 9.7 | 0.00 | 0.00 | 0.00 | 53 | 1015.3 |
| 20260505012759 | 17 | 125 | 4.8 | 8.0 | 0.00 | 0.00 | 0.00 | 53 | 1015.4 |
| 20260505012256 | 17 | 111 | 6.4 | 9.7 | 0.00 | 0.00 | 0.00 | 53 | 1015.4 |
| 20260505011751 | 17 | 115 | 6.4 | 8.0 | 0.00 | 0.00 | 0.00 | 54 | 1015.3 |
| 20260505011249 | 17 | 123 | 6.4 | 6.4 | 0.00 | 0.00 | 0.00 | 56 | 1015.2 |
| 20260505010744 | 17 | 113 | 4.8 | 8.0 | 0.00 | 0.00 | 0.00 | 56 | 1015.2 |
| 20260505010241 | 17 | 127 | 4.8 | 8.0 | 0.00 | 0.00 | 0.00 | 56 | 1015.2 |
| 20260505005737 | 17 | 113 | 4.8 | 8.0 | 0.00 | 0.00 | 0.00 | 55 | 1015.2 |
| 20260505005234 | 17 | 119 | 6.4 | 8.0 | 0.00 | 0.00 | 0.00 | 58 | 1014.8 |
| 20260505004731 | 17 | 115 | 6.4 | 8.0 | 0.00 | 0.00 | 0.00 | 56 | 1015.0 |
| 20260505004228 | 18 | 112 | 6.4 | 8.0 | 0.00 | 0.00 | 0.00 | 55 | 1015.0 |
| 20260505003725 | 18 | 115 | 8.0 | 8.0 | 0.00 | 0.00 | 0.00 | 53 | 1014.8 |
| 20260505003223 | 18 | 127 | 6.4 | 8.0 | 0.00 | 0.00 | 0.00 | 54 | 1014.8 |
| 20260505002719 | 18 | 123 | 8.0 | 8.0 | 0.00 | 0.00 | 0.00 | 54 | 1014.9 |
| 20260505002216 | 18 | 128 | 6.4 | 8.0 | 0.00 | 0.00 | 0.00 | 52 | 1014.7 |
| 20260505001714 | 19 | 112 | 4.8 | 8.0 | 0.00 | 0.00 | 0.00 | 51 | 1014.6 |
| 20260505001211 | 20 | 116 | 4.8 | 8.0 | 0.00 | 0.00 | 0.00 | 49 | 1014.7 |
| 20260505000708 | 20 | 125 | 6.4 | 6.4 | 0.00 | 0.00 | 0.00 | 48 | 1015.0 |
| 20260505000206 | 20 | 137 | 3.2 | 4.8 | 0.00 | 0.00 | 0.00 | 47 | 1015.0 |
| 20260504235702 | 21 | 132 | 1.6 | 4.8 | 0.00 | 0.00 | 0.00 | 46 | 1014.6 |
| 20260504235158 | 21 | 157 | 1.6 | 8.0 | 0.00 | 0.00 | 0.00 | 45 | 1014.6 |
| 20260504234656 | 21 | 148 | 3.2 | 4.8 | 0.00 | 0.00 | 0.00 | 44 | 1014.7 |
| 20260504234153 | 22 | 119 | 4.8 | 4.8 | 0.00 | 0.00 | 0.00 | 43 | 1014.5 |
| 20260504233649 | 22 | 140 | 3.2 | 6.4 | 0.00 | 0.00 | 0.00 | 43 | 1014.6 |
| 20260504233145 | 23 | 149 | 3.2 | 6.4 | 0.00 | 0.00 | 0.00 | 42 | 1014.5 |
| 20260504232643 | 23 | 60 | 1.6 | 6.4 | 0.00 | 0.00 | 0.00 | 40 | 1014.5 |
| 20260504232139 | 24 | 114 | 0.0 | 4.8 | 0.00 | 0.00 | 0.00 | 40 | 1014.3 |
| 20260504231636 | 23 | 56 | 1.6 | 6.4 | 0.00 | 0.00 | 0.00 | 40 | 1014.1 |
| 20260504231132 | 23 | 244 | 8.0 | 16.1 | 0.00 | 0.00 | 0.00 | 41 | 1014.5 |
| 20260504230629 | 23 | 253 | 6.4 | 11.3 | 0.00 | 0.00 | 0.00 | 39 | 1014.4 |
| 20260504230128 | 23 | 205 | 0.0 | 8.0 | 0.00 | 0.00 | 0.00 | 40 | 1014.2 |
| 20260504225625 | 24 | 153 | 0.0 | 8.0 | 0.00 | 0.00 | 0.00 | 39 | 1014.4 |
| 20260504225121 | 25 | 257 | 12.9 | 12.9 | 0.00 | 0.00 | 0.00 | 37 | 1014.3 |
| 20260504224618 | 25 | 197 | 4.8 | 4.8 | 0.00 | 0.00 | 0.00 | 40 | 1014.2 |
| 20260504224115 | 24 | 259 | 8.0 | 11.3 | 0.00 | 0.00 | 0.00 | 37 | 1014.1 |
| 20260504223612 | 24 | 272 | 6.4 | 16.1 | 0.00 | 0.00 | 0.00 | 39 | 1014.1 |
| 20260504223108 | 25 | 217 | 4.8 | 8.0 | 0.00 | 0.00 | 0.00 | 39 | 1014.2 |
| 20260504222605 | 25 | 266 | 0.0 | 9.7 | 0.00 | 0.00 | 0.00 | 37 | 1014.1 |
| 20260504222102 | 25 | 188 | 1.6 | 8.0 | 0.00 | 0.00 | 0.00 | 38 | 1014.2 |
| 20260504221559 | 25 | 227 | 3.2 | 9.7 | 0.00 | 0.00 | 0.00 | 39 | 1014.4 |
| 20260504221056 | 25 | 130 | 3.2 | 8.0 | 0.00 | 0.00 | 0.00 | 38 | 1014.1 |
| 20260504220552 | 25 | 292 | 3.2 | 9.7 | 0.00 | 0.00 | 0.00 | 37 | 1014.2 |
| 20260504220049 | 25 | 290 | 4.8 | 12.9 | 0.00 | 0.00 | 0.00 | 39 | 1014.2 |
| 20260504215546 | 25 | 248 | 11.3 | 17.7 | 0.00 | 0.00 | 0.00 | 38 | 1014.0 |
| 20260504215044 | 25 | 218 | 6.4 | 17.7 | 0.00 | 0.00 | 0.00 | 39 | 1014.1 |
| 20260504214539 | 25 | 221 | 4.8 | 11.3 | 0.00 | 0.00 | 0.00 | 40 | 1014.2 |
| 20260504214036 | 25 | 104 | 3.2 | 8.0 | 0.00 | 0.00 | 0.00 | 38 | 1014.1 |
| 20260504213532 | 25 | 341 | 3.2 | 6.4 | 0.00 | 0.00 | 0.00 | 39 | 1014.3 |
| 20260504213030 | 24 | 211 | 6.4 | 17.7 | 0.00 | 0.00 | 0.00 | 38 | 1014.2 |
| 20260504212525 | 24 | 240 | 9.7 | 27.4 | 0.00 | 0.00 | 0.00 | 37 | 1014.0 |
| 20260504212023 | 25 | 216 | 14.5 | 17.7 | 0.00 | 0.00 | 0.00 | 38 | 1014.4 |
| 20260504211520 | 24 | 247 | 9.7 | 17.7 | 0.00 | 0.00 | 0.00 | 39 | 1014.1 |
| 20260504211017 | 25 | 220 | 8.0 | 16.1 | 0.00 | 0.00 | 0.00 | 39 | 1014.3 |
| 20260504210514 | 25 | 286 | 12.9 | 17.7 | 0.00 | 0.00 | 0.00 | 37 | 1014.2 |
| 20260504210011 | 25 | 230 | 4.8 | 11.3 | 0.00 | 0.00 | 0.00 | 40 | 1014.1 |
| 20260504205508 | 25 | 240 | 12.9 | 17.7 | 0.00 | 0.00 | 0.00 | 39 | 1014.2 |
| 20260504205006 | 25 | 313 | 0.0 | 9.7 | 0.00 | 0.00 | 0.00 | 38 | 1014.1 |
| 20260504204504 | 25 | 284 | 11.3 | 14.5 | 0.00 | 0.00 | 0.00 | 41 | 1014.3 |
| 20260504204003 | 25 | 235 | 4.8 | 8.0 | 0.00 | 0.00 | 0.00 | 42 | 1014.2 |
| 20260504203500 | 25 | 282 | 14.5 | 14.5 | 0.00 | 0.00 | 0.00 | 39 | 1014.4 |
| 20260504202956 | 24 | 249 | 14.5 | 22.5 | 0.00 | 0.00 | 0.00 | 40 | 1014.5 |
| 20260504202453 | 24 | 242 | 6.4 | 14.5 | 0.00 | 0.00 | 0.00 | 42 | 1014.3 |
| 20260504201950 | 23 | 246 | 8.0 | 17.7 | 0.00 | 0.00 | 0.00 | 40 | 1014.6 |
| 20260504201447 | 25 | 237 | 16.1 | 17.7 | 0.00 | 0.00 | 0.00 | 39 | 1014.6 |
| 20260504200944 | 23 | 264 | 14.5 | 16.1 | 0.00 | 0.00 | 0.00 | 42 | 1014.7 |
| 20260504200441 | 23 | 303 | 6.4 | 9.7 | 0.00 | 0.00 | 0.00 | 41 | 1014.5 |
| 20260504195938 | 24 | 227 | 3.2 | 14.5 | 0.00 | 0.00 | 0.00 | 43 | 1014.8 |
| 20260504195433 | 23 | 218 | 12.9 | 16.1 | 0.00 | 0.00 | 0.00 | 40 | 1014.8 |
| 20260504194930 | 23 | 236 | 8.0 | 19.3 | 0.00 | 0.00 | 0.00 | 42 | 1014.7 |
| 20260504194426 | 23 | 236 | 8.0 | 14.5 | 0.00 | 0.00 | 0.00 | 42 | 1014.9 |
| 20260504193922 | 23 | 231 | 9.7 | 19.3 | 0.00 | 0.00 | 0.00 | 43 | 1014.9 |
| 20260504193420 | 23 | 258 | 14.5 | 19.3 | 0.00 | 0.00 | 0.00 | 41 | 1015.1 |
| 20260504192918 | 22 | 264 | 8.0 | 14.5 | 0.00 | 0.00 | 0.00 | 43 | 1015.0 |
| 20260504192415 | 23 | 269 | 8.0 | 20.9 | 0.00 | 0.00 | 0.00 | 43 | 1015.3 |
| 20260504191914 | 22 | 186 | 4.8 | 16.1 | 0.00 | 0.00 | 0.00 | 43 | 1015.2 |
| 20260504191412 | 23 | 216 | 3.2 | 9.7 | 0.00 | 0.00 | 0.00 | 44 | 1015.3 |
| 20260504190907 | 23 | 246 | 4.8 | 11.3 | 0.00 | 0.00 | 0.00 | 44 | 1015.5 |
| 20260504190403 | 23 | 250 | 12.9 | 16.1 | 0.00 | 0.00 | 0.00 | 45 | 1015.6 |
| 20260504185900 | 22 | 296 | 3.2 | 11.3 | 0.00 | 0.00 | 0.00 | 42 | 1015.4 |
| 20260504185357 | 23 | 298 | 8.0 | 14.5 | 0.00 | 0.00 | 0.00 | 45 | 1015.7 |
| 20260504184853 | 22 | 350 | 4.8 | 14.5 | 0.00 | 0.00 | 0.00 | 42 | 1015.8 |
| 20260504184349 | 22 | 235 | 8.0 | 22.5 | 0.00 | 0.00 | 0.00 | 43 | 1015.9 |
| 20260504183845 | 22 | 258 | 8.0 | 17.7 | 0.00 | 0.00 | 0.00 | 43 | 1015.9 |
| 20260504183343 | 22 | 245 | 6.4 | 14.5 | 0.00 | 0.00 | 0.00 | 45 | 1015.7 |
| 20260504182840 | 22 | 260 | 3.2 | 9.7 | 0.00 | 0.00 | 0.00 | 45 | 1015.8 |
| 20260504182337 | 22 | 282 | 4.8 | 9.7 | 0.00 | 0.00 | 0.00 | 45 | 1016.0 |
| 20260504181833 | 22 | 214 | 17.7 | 22.5 | 0.00 | 0.00 | 0.00 | 42 | 1016.4 |
| 20260504181331 | 22 | 225 | 19.3 | 22.5 | 0.00 | 0.00 | 0.00 | 43 | 1016.2 |
| 20260504180830 | 21 | 300 | 8.0 | 22.5 | 0.00 | 0.00 | 0.00 | 48 | 1016.0 |
| 20260504180328 | 22 | 256 | 6.4 | 12.9 | 0.00 | 0.00 | 0.00 | 43 | 1016.5 |
| 20260504175826 | 22 | 236 | 11.3 | 14.5 | 0.00 | 0.00 | 0.00 | 45 | 1016.4 |
| 20260504175322 | 21 | 320 | 8.0 | 11.3 | 0.00 | 0.00 | 0.00 | 45 | 1016.6 |
| 20260504174821 | 21 | 244 | 12.9 | 22.5 | 0.00 | 0.00 | 0.00 | 44 | 1016.6 |
| 20260504174318 | 21 | 205 | 3.2 | 8.0 | 0.00 | 0.00 | 0.00 | 44 | 1016.8 |
| 20260504173815 | 21 | 185 | 8.0 | 11.3 | 0.00 | 0.00 | 0.00 | 45 | 1016.5 |
| 20260504173311 | 21 | 260 | 6.4 | 14.5 | 0.00 | 0.00 | 0.00 | 45 | 1016.7 |
| 20260504172808 | 21 | 289 | 9.7 | 11.3 | 0.00 | 0.00 | 0.00 | 44 | 1016.7 |
| 20260504172305 | 20 | 276 | 3.2 | 8.0 | 0.00 | 0.00 | 0.00 | 49 | 1016.7 |
| 20260504171800 | 20 | 269 | 11.3 | 12.9 | 0.00 | 0.00 | 0.00 | 47 | 1016.9 |
| 20260504171258 | 20 | 250 | 9.7 | 20.9 | 0.00 | 0.00 | 0.00 | 47 | 1016.8 |
| 20260504170755 | 20 | 284 | 14.5 | 19.3 | 0.00 | 0.00 | 0.00 | 47 | 1017.0 |
| 20260504170252 | 20 | 225 | 11.3 | 14.5 | 0.00 | 0.00 | 0.00 | 47 | 1017.0 |
| 20260504160210 | 18 | 256 | 4.8 | 14.5 | 0.00 | 0.00 | 0.00 | 48 | 1017.7 |
| 20260504151139 | 17 | 232 | 3.2 | 9.7 | 0.00 | 0.00 | 0.00 | 49 | 1018.0 |
| 20260504150636 | 17 | 266 | 8.0 | 17.7 | 0.00 | 0.00 | 0.00 | 47 | 1018.3 |
| 20260504150133 | 18 | 205 | 11.3 | 14.5 | 0.00 | 0.00 | 0.00 | 43 | 1018.5 |
| 20260504141101 | 16 | 255 | 4.8 | 9.7 | 0.00 | 0.00 | 0.00 | 45 | 1018.5 |
| 20260504140558 | 16 | 164 | 4.8 | 4.8 | 0.00 | 0.00 | 0.00 | 46 | 1018.3 |